FLOCK 2E-5 (41564 NORAD) Tracking and Keplerian Element Data

This shows tracking and keplerian element data for the satellite.

Feedback or suggestion? Click here.




ElementValue
Catalog41564
NameFLOCK 2E-5
Epoch Orbit12649
Epoch Day225.9163961
Epoch Year2018
RAAN355.7323
Inclination51.605
Eccentricity0.0014258
Argument of Perigee321.8055
Mean Anonmoly38.1957
Mean Motion16.32532786
Decay Rate0.05544764
L11 41564U 98067JN 18225.91639610 .05544764 12294-4 88851-3 0 9993
L22 41564 51.6050 355.7323 0014258 321.8055 38.1957 16.32532786126499



Live tracking and technical data element details for FLOCK 2E-5 (NORAD 41564). FLOCK 2E-5 can be tracked NOW for your location showing map with azimuth and elevation plus other details from your city location.







IsCatalogInMostPopularTable: catalog: 41564, numindb: 623
Update: records affected: 1



GetName: 41564 FLOCK 2E-5

Hit Count: updated at: Mon, 17 Jun 2024 22:29:09 GMT